K3ZED-2 Weather Reports


Display with metric or nautical units.
time (UTC)temp
F
wind
direction
speed
MPH
gust
MPH
rain 1hr
in
rain 24hr
in
rain mn
in
humidity
%
barometer
mb
20260905021553 73 247 0.0 0.0 0.00 0.01 0.00 90 1011.5
20260905020053 74 247 0.0 0.0 0.00 0.01 0.00 90 1011.5
20260905014557 74 247 0.0 0.0 0.00 0.01 0.00 90 1011.4
20260905013058 74 247 0.0 0.0 0.00 0.01 0.00 90 1011.4
20260905011551 74 247 0.0 0.0 0.00 0.01 0.00 90 1011.3
20260905010050 74 247 0.0 0.0 0.00 0.01 0.00 89 1011.4
20260905004606 74 247 0.0 0.0 0.00 0.01 0.00 89 1011.5
20260905003050 75 247 0.0 0.0 0.00 0.01 0.00 88 1011.3
20260905001549 75 247 0.0 1.0 0.00 0.01 0.00 87 1011.2
20260905000050 76 237 0.0 0.0 0.00 0.01 0.00 86 1011.2
20260904234548 77 237 0.0 1.0 0.00 0.01 0.00 85 1011.3
20260904233048 78 226 0.0 1.0 0.00 0.01 0.00 83 1011.4
20260904231547 79 226 0.0 0.0 0.00 0.01 0.00 82 1011.0
20260904224544 80 238 0.0 1.0 0.00 0.01 0.00 78 1011.5
20260904223046 81 238 0.0 0.0 0.00 0.01 0.00 77 1011.5
20260904221544 82 239 0.0 1.0 0.00 0.01 0.00 76 1011.4
20260904220043 82 252 0.0 1.0 0.00 0.01 0.00 73 1011.3
20260904214541 83 225 0.0 1.0 0.00 0.01 0.00 75 1011.5
20260904213040 82 243 0.0 1.0 0.00 0.01 0.00 73 1011.9
20260904211539 83 260 0.0 3.0 0.00 0.01 0.00 71 1011.8
20260904210039 83 228 0.0 4.0 0.00 0.01 0.00 72 1012.2
20260904204538 83 275 0.0 2.0 0.00 0.01 0.00 70 1012.1
20260904203038 83 315 0.0 1.0 0.00 0.01 0.00 71 1011.9
20260904201538 83 33 0.0 0.0 0.00 0.01 0.00 71 1011.6
20260904200036 84 320 0.0 4.0 0.00 0.01 0.00 68 1011.7
20260904194536 85 314 1.0 10.0 0.00 0.01 0.00 68 1012.1
20260904193038 84 274 1.0 9.0 0.00 0.01 0.00 69 1012.4
20260904191533 84 281 1.0 11.0 0.00 0.01 0.00 70 1012.7
20260904190038 84 344 1.0 6.0 0.00 0.01 0.00 70 1012.8
20260904184529 83 286 0.0 9.0 0.00 0.01 0.00 70 1012.9
20260904183028 83 285 0.0 12.0 0.00 0.01 0.00 69 1013.0
20260904181530 82 250 2.0 9.0 0.00 0.01 0.00 71 1013.2
20260904180027 82 290 0.0 4.0 0.00 0.01 0.00 72 1013.1
20260904174526 83 294 1.0 7.0 0.00 0.01 0.00 70 1013.2
20260904173025 83 6 2.0 9.0 0.00 0.01 0.00 68 1013.3
20260904171526 83 346 0.0 11.0 0.00 0.01 0.00 71 1013.2
20260904170023 82 299 2.0 9.0 0.00 0.01 0.00 70 1013.1
20260904164521 82 339 3.0 10.0 0.00 0.01 0.00 73 1013.4
20260904163022 82 1 2.0 10.0 0.00 0.01 0.00 72 1013.5
20260904161520 82 43 1.0 8.0 0.00 0.01 0.00 72 1013.5
20260904160020 82 301 1.0 5.0 0.00 0.01 0.00 73 1013.5
20260904154517 81 330 1.0 5.0 0.00 0.01 0.00 72 1013.6
20260904153016 81 293 1.0 8.0 0.00 0.01 0.00 73 1013.7
20260904151517 81 345 2.0 9.0 0.00 0.01 0.00 71 1013.9
20260904150023 80 333 0.0 8.0 0.00 0.01 0.00 75 1013.7
20260904144509 79 1 1.0 13.0 0.00 0.01 0.00 74 1013.6
20260904143009 79 276 1.0 11.0 0.00 0.01 0.00 75 1013.5
20260904141505 78 339 2.0 13.0 0.00 0.01 0.00 76 1013.6
20260904140003 78 336 4.0 12.0 0.00 0.01 0.00 76 1013.3
20260904134501 77 356 3.0 15.0 0.00 0.01 0.00 78 1013.2
20260904133104 77 12 3.0 12.0 0.00 0.01 0.00 79 1013.4
20260904131558 76 31 3.0 11.0 0.00 0.01 0.00 79 1013.2
20260904124555 75 325 2.0 8.0 0.00 0.01 0.00 83 1013.5
20260904123048 74 314 2.0 12.0 0.00 0.01 0.00 83 1013.7
20260904121648 73 335 3.0 12.0 0.00 0.01 0.00 85 1013.7
20260904114544 71 280 2.0 11.0 0.00 0.01 0.00 87 1013.3
20260904113042 70 328 3.0 7.0 0.00 0.01 0.00 88 1013.3
20260904111543 70 285 4.0 9.0 0.00 0.01 0.00 88 1013.4
20260904110043 70 270 2.0 7.0 0.00 0.01 0.00 89 1013.3
20260904104540 70 294 0.0 5.0 0.00 0.04 0.00 88 1012.9
20260904103038 70 274 3.0 8.0 0.00 0.04 0.00 88 1012.7
20260904101536 71 328 3.0 7.0 0.00 0.04 0.00 88 1012.6
20260904100036 71 298 0.0 5.0 0.00 0.04 0.00 89 1012.6
20260904094535 71 276 1.0 4.0 0.00 0.14 0.00 89 1012.5
20260904093038 71 259 1.0 4.0 0.00 0.14 0.00 90 1012.6
20260904091534 71 295 0.0 4.0 0.00 0.14 0.00 90 1012.8
20260904090034 71 278 1.0 5.0 0.00 0.14 0.00 90 1013.2
20260904084532 71 225 0.0 2.0 0.00 0.19 0.00 89 1013.1
20260904083035 71 264 1.0 4.0 0.00 0.19 0.00 89 1013.2
20260904081537 72 251 2.0 7.0 0.00 0.19 0.00 88 1013.2
20260904080029 72 253 1.0 4.0 0.00 0.19 0.00 88 1013.1
20260904074527 72 216 0.0 7.0 0.00 0.20 0.00 88 1013.4
20260904073026 72 245 1.0 6.0 0.00 0.20 0.00 88 1013.1
20260904071523 72 213 1.0 7.0 0.00 0.20 0.00 89 1013.0
20260904070021 73 249 1.0 5.0 0.00 0.20 0.00 89 1012.6
20260904064519 73 268 1.0 6.0 0.00 0.21 0.00 90 1012.1
20260904063017 74 222 1.0 5.0 0.00 0.21 0.00 90 1011.8
20260904061535 74 265 0.0 3.0 0.00 0.21 0.00 90 1011.9
20260904060016 74 256 1.0 6.0 0.00 0.21 0.00 90 1012.0
20260904054520 74 278 0.0 5.0 0.00 0.30 0.00 91 1012.2
20260904053013 74 260 0.0 4.0 0.00 0.30 0.00 90 1012.5
20260904051510 74 260 0.0 3.0 0.00 0.30 0.00 89 1012.3
20260904050007 75 206 0.0 5.0 0.00 0.30 0.00 89 1012.4
20260904044506 75 224 1.0 6.0 0.01 0.30 0.00 88 1012.5
20260904043107 75 285 2.0 8.0 0.01 0.30 0.00 89 1012.3
20260904041555 75 337 1.0 5.0 0.01 0.30 0.00 91 1012.5
20260904040051 75 18 0.0 2.0 0.01 0.30 0.00 90 1013.0
20260904034550 75 293 0.0 3.0 0.00 0.28 0.28 91 1013.3
20260904033048 75 255 0.0 2.0 0.00 0.28 0.28 92 1013.6
20260904031552 75 224 2.0 7.0 0.00 0.28 0.28 92 1013.6
20260904030053 74 237 0.0 0.0 0.00 0.28 0.28 91 1013.9
20260904024547 74 181 0.0 0.0 0.00 0.28 0.28 91 1013.7
20260904023047 74 147 0.0 0.0 0.00 0.28 0.28 91 1013.7